"Pseudo-MPEC" for C048485

Created 2021 Mar 4 15:07:02 UT using Find_Orb

Click here for an explanation of pseudo-MPECs

 
 Astrometry: 
     C048485  C2021 02 112anVWaYL;Z_d(NSejcI3XAstrometrybEjlB4Dl70S`@1Gy]3v')V00
     C048485  C2021 02 11X/\CSlfXTf#!.7yN/.4Os5(VR;,3Ddv[-*5SJmbredacted;6p=yV00
     C048485  C2021 02 11aS6%a$.Zn6j+Pg):cd!GSUrGq.q4aYP;IUV'=kuS5Oclick8fAZ`V00
     C048485  C2021 02 11\M97y`.here.2vforIELH[OOR@%+/TwexplanationOq0Q$lX]XXV00
     C048485 KC2021 02 12.28812 06 26 54.49 +46 52 28.0    ~2C87 22.7 GVNEOCP291
     C048485 KC2021 02 12.30253 06 26 53.78 +46 52 15.5    ~2C87       VNEOCP291
     C048485 KC2021 02 12.31694 06 26 52.96 +46 52 02.7    ~2C87 23.1 GVNEOCP291

Station data:
(291) LPL/Spacewatch II  (N31.961669 W111.599905)  US/Arizona.  Observers J.
   V. Scotti, R. S. McMillan. 1.8-m f/2.7 reflector + CCD.
(V00) Kitt Peak-Bok  (N31.963127 W111.600190)  US/Arizona.

Orbital elements:  C048485
   Perihelion 2021 Jul 9.659740 +/- 278.641 TT = 15:50:01 (JD 2459405.159740)
Epoch 2021 Feb 12.0 TT = JDT 2459257.5   Earth MOID: 0.3974   Ju: 0.7652
M 334.66071529 +/- 89.978798        (J2000 ecliptic)          AutoNEOCP
n   0.17160591 +/- 0.215975         Peri.  222.08771 +/- 87.527054
a   3.20711511 +/- 2.69083          Node   339.59306 +/- 41.325298
e   0.5849316 +/- 0.242259          Incl.   20.99358 +/- 22.614755
P   5.74                   H 19.9   G  0.15   U 11.7  SR
q 1.33117194 +/- 1.17184    Q 5.08305828 +/- 39.9958
From 7 observations 2021 Feb. 11-12 (26.1 hr); mean residual 0".24
Residuals in arcseconds: 
210211 V00  .07-  .17+    210211 V00  .17+  .04+    210212 291  .19-  .36+    
210211 V00  .02-  .16+    210212 291  .20-  .45-    
210211 V00  .08-  .35-    210212 291  .39+  .09+    

Ephemerides (geocentric):
Date (UTC) HH   RA              Dec         delta   r     elong  mag " sig PA
---- -- -- --  -------------   -----------  ------ ------ -----  --- ---- ---
2021 03 04 15  06 22 04.223   +41 23 00.01  1.3256 1.9004 109.3 23.2 2546 174
2021 03 04 16  06 22 05.046   +41 22 17.66  1.3257 1.9001 109.3 23.2 2556 174
2021 03 04 17  06 22 05.875   +41 21 35.30  1.3259 1.8998 109.3 23.2 2565 174
2021 03 04 18  06 22 06.710   +41 20 52.94  1.3260 1.8995 109.2 23.2 2574 174
2021 03 04 19  06 22 07.549   +41 20 10.58  1.3261 1.8992 109.2 23.2 2583 174
2021 03 04 20  06 22 08.394   +41 19 28.22  1.3262 1.8990 109.2 23.2 2592 174
2021 03 04 21  06 22 09.244   +41 18 45.85  1.3264 1.8987 109.1 23.2 2601 174
2021 03 04 22  06 22 10.100   +41 18 03.48  1.3265 1.8984 109.1 23.2 2610 174
2021 03 04 23  06 22 10.960   +41 17 21.11  1.3266 1.8981 109.1 23.2 2619 174
2021 03 05 00  06 22 11.826   +41 16 38.74  1.3267 1.8978 109.0 23.2 2628 174
2021 03 05 01  06 22 12.697   +41 15 56.36  1.3269 1.8975 109.0 23.2 2638 174
2021 03 05 02  06 22 13.574   +41 15 13.98  1.3270 1.8973 109.0 23.2 2647 174
2021 03 05 03  06 22 14.456   +41 14 31.60  1.3271 1.8970 108.9 23.2 2656 174
2021 03 05 04  06 22 15.343   +41 13 49.22  1.3272 1.8967 108.9 23.2 2665 174
2021 03 05 05  06 22 16.235   +41 13 06.83  1.3274 1.8964 108.9 23.2 2674 174
2021 03 05 06  06 22 17.132   +41 12 24.44  1.3275 1.8961 108.8 23.2 2683 174
2021 03 05 07  06 22 18.035   +41 11 42.05  1.3276 1.8958 108.8 23.2 2693 174
2021 03 05 08  06 22 18.943   +41 10 59.66  1.3277 1.8956 108.7 23.2 2702 174
2021 03 05 09  06 22 19.856   +41 10 17.26  1.3279 1.8953 108.7 23.2 2711 174
2021 03 05 10  06 22 20.775   +41 09 34.86  1.3280 1.8950 108.7 23.2 2721 174
2021 03 05 11  06 22 21.698   +41 08 52.46  1.3281 1.8947 108.6 23.2 2730 174
2021 03 05 12  06 22 22.627   +41 08 10.06  1.3282 1.8944 108.6 23.2 2739 174
2021 03 05 13  06 22 23.562   +41 07 27.65  1.3284 1.8941 108.6 23.2 2748 174
2021 03 05 14  06 22 24.501   +41 06 45.24  1.3285 1.8939 108.5 23.2 2758 174
2021 03 05 15  06 22 25.446   +41 06 02.83  1.3286 1.8936 108.5 23.2 2767 174
2021 03 05 16  06 22 26.395   +41 05 20.42  1.3287 1.8933 108.5 23.2 2776 174
2021 03 05 17  06 22 27.350   +41 04 38.01  1.3289 1.8930 108.4 23.2 2786 174
2021 03 05 18  06 22 28.311   +41 03 55.59  1.3290 1.8927 108.4 23.2 2795 174
2021 03 05 19  06 22 29.276   +41 03 13.17  1.3291 1.8924 108.4 23.2 2804 174
2021 03 05 20  06 22 30.247   +41 02 30.75  1.3293 1.8922 108.3 23.2 2814 174
2021 03 05 21  06 22 31.223   +41 01 48.33  1.3294 1.8919 108.3 23.2 2823 174
2021 03 05 22  06 22 32.204   +41 01 05.90  1.3295 1.8916 108.3 23.2 2833 174
2021 03 05 23  06 22 33.190   +41 00 23.48  1.3296 1.8913 108.2 23.2 2842 174
2021 03 06 00  06 22 34.182   +40 59 41.05  1.3298 1.8910 108.2 23.2 2852 174
2021 03 06 01  06 22 35.178   +40 58 58.62  1.3299 1.8907 108.2 23.2 2861 174
2021 03 06 02  06 22 36.180   +40 58 16.18  1.3300 1.8905 108.1 23.2 2870 174
2021 03 06 03  06 22 37.187   +40 57 33.75  1.3302 1.8902 108.1 23.2 2880 174
2021 03 06 04  06 22 38.200   +40 56 51.31  1.3303 1.8899 108.1 23.2 2889 174
2021 03 06 05  06 22 39.217   +40 56 08.87  1.3304 1.8896 108.0 23.2 2899 174
2021 03 06 06  06 22 40.240   +40 55 26.43  1.3305 1.8893 108.0 23.2 2908 174
2021 03 06 07  06 22 41.267   +40 54 43.99  1.3307 1.8890 107.9 23.2 2918 174
2021 03 06 08  06 22 42.300   +40 54 01.54  1.3308 1.8888 107.9 23.2 2928 174
2021 03 06 09  06 22 43.338   +40 53 19.09  1.3309 1.8885 107.9 23.2 2937 174
2021 03 06 10  06 22 44.382   +40 52 36.64  1.3311 1.8882 107.8 23.2 2947 174
2021 03 06 11  06 22 45.430   +40 51 54.19  1.3312 1.8879 107.8 23.2 2956 174
2021 03 06 12  06 22 46.483   +40 51 11.74  1.3313 1.8876 107.8 23.2 2966 174
2021 03 06 13  06 22 47.542   +40 50 29.29  1.3314 1.8873 107.7 23.2 2975 174
2021 03 06 14  06 22 48.606   +40 49 46.83  1.3316 1.8871 107.7 23.2 2985 174